Starlink 30532

operational
NORAD ID: 58070 Int'l Des: 2023-158 Owner: SPXS Country: US Constellation: starlink
LEOCIRCULAR

About Starlink 30532

Description loading...

Live Position

Loading 3D Globe...

Upcoming Passes

Altitude History

Altitude vs Time

uPlot chart will show altitude changes over time

Two-Line Element Set

1 58070U 23158V 25259.71147315 -.00000236 00000-0 -23849-5 0 9995
2 58070 43.0017 255.4097 0001159 278.3403 81.7308 15.02534523107366
Epoch: Sep 16, 2025 • Age: 27 hours

Current Status

Altitude 569.9 km
Velocity 7.58 km/s
Sub-Earth Point -38.79°S, 105.24°W
Launch Date Oct 13, 2023
Age 1.9 years
Type internet

Technical Details

Classification Payload
Mass 730.00 kg
Dry Mass 700.00 kg
Total Mass 730.00 kg
Length 0.30 m
Diameter 4.10 m
Span 29.00 m
Shape Box + pan
Manufacturer SPXS
Bus Type Starlink V2M
Phase Status In Orbit
Owner/State SPXS/US

Large Constellations

Loading constellations...